Warroad, MN

8:31 PM CDT on July 24, 2017 (GMT -0500)
Warroad International-Carlson

Weather History for KRRT - April, 2013

Change the Weather History Date:

Friday, April 5, 2013

  Actual Average Record
Temperature  
Mean Temperature 22 °F -  
Max Temperature 35 °F 44 °F 61 °F (1991)
Min Temperature 8 °F 20 °F -10 °F (1979)
Degree Days  
Heating Degree Days 44    
Moisture  
Dew Point 15 °F    
Average Humidity 71    
Maximum Humidity 86    
Minimum Humidity 52    
Precipitation  
Precipitation 0.00 in - - ()
Sea Level Pressure  
Sea Level Pressure 30.13 in    
Wind  
Wind Speed 4 mph (ENE)    
Max Wind Speed 12 mph    
Max Gust Speed -    
Visibility 10 miles    
Events Snow    
Averages and records for this station are not official NWS values.
T = Trace of Precipitation, MM = Missing Value Source: NWS Daily Summary

Daily Weather History Graph

Daily Weather History Graph

Search for Another Location

Airport or City:

Trip Planner

Search our weather history database for the weather conditions in past years. The results will help you decide how hot, cold, wet, or windy it might be!

Date:

Astronomy

Apr. 05, 2013 Rise Set
Actual Time 6:50 AM CDT 7:58 PM CDT
Civil Twilight 6:17 AM CDT 8:31 PM CDT
Nautical Twilight 5:38 AM CDT 9:10 PM CDT
Astronomical Twilight 4:57 AM CDT 9:52 PM CDT
Moon 4:21 AM CDT (4/5) 3:02 PM CDT (4/5)
Length of Visible Light 14h 13m
Length of Day
13h 08m
Waning Crescent, 23% of the Moon is Illuminated
Apr 5
Waning Crescent
Apr 10
New
Apr 18
First Quarter
Apr 25
Full
May 2
Last Quarter

Hourly Weather History & Observations

Time (CDT) Temp. Windchill Dew Point Humidity Pressure Visibility Wind Dir Wind Speed Gust Speed Precip Events Conditions
12:14 AM 19.4 °F 12.8 °F 10.4 °F 68% 30.25 in 10.0 mi WNW 4.6 mph - N/A   Clear
12:33 AM 19.4 °F 11.5 °F 10.4 °F 68% 30.25 in 10.0 mi NW 5.8 mph - N/A   Clear
12:54 AM 19.4 °F 11.5 °F 10.4 °F 68% 30.25 in 10.0 mi WNW 5.8 mph - N/A   Clear
1:14 AM 17.6 °F 10.7 °F 10.4 °F 73% 30.25 in 10.0 mi WNW 4.6 mph - N/A   Clear
1:34 AM 17.6 °F - 10.4 °F 73% 30.25 in 10.0 mi Calm Calm - N/A   Clear
1:53 AM 15.8 °F - 8.6 °F 73% 30.25 in 10.0 mi Calm Calm - N/A   Clear
2:14 AM 15.8 °F - 10.4 °F 79% 30.25 in 10.0 mi Calm Calm - N/A   Clear
2:34 AM 15.8 °F - 8.6 °F 73% 30.25 in 10.0 mi Calm Calm - N/A   Clear
2:53 AM 14.0 °F - 8.6 °F 79% 30.25 in 10.0 mi Calm Calm - N/A   Clear
3:14 AM 14.0 °F - 8.6 °F 79% 30.25 in 10.0 mi Calm Calm - N/A   Clear
3:34 AM 12.2 °F 4.3 °F 6.8 °F 79% 30.25 in 10.0 mi SSW 4.6 mph - N/A   Clear
3:53 AM 12.2 °F - 6.8 °F 79% 30.25 in 10.0 mi Calm Calm - N/A   Clear
4:14 AM 8.6 °F - 3.2 °F 79% 30.25 in 10.0 mi Calm Calm - N/A   Clear
4:34 AM 8.6 °F - 3.2 °F 79% 30.25 in 10.0 mi Calm Calm - N/A   Clear
4:54 AM 10.4 °F - 6.8 °F 85% 30.26 in 10.0 mi Calm Calm - N/A   Clear
5:14 AM 10.4 °F - 6.8 °F 85% 30.26 in 10.0 mi Calm Calm - N/A   Clear
5:34 AM 10.4 °F - 6.8 °F 85% 30.26 in 10.0 mi Calm Calm - N/A   Clear
5:54 AM 10.4 °F - 6.8 °F 85% 30.25 in 10.0 mi Calm Calm - N/A   Clear
6:14 AM 10.4 °F - 6.8 °F 85% 30.25 in 10.0 mi Calm Calm - N/A   Clear
6:34 AM 8.6 °F 2.0 °F 3.2 °F 79% 30.24 in 10.0 mi North 3.5 mph - N/A   Clear
6:54 AM 10.4 °F 4.0 °F 5.0 °F 79% 30.24 in 10.0 mi North 3.5 mph - N/A   Clear
7:14 AM 10.4 °F - 5.0 °F 79% 30.24 in 10.0 mi Calm Calm - N/A   Clear
7:34 AM 10.4 °F - 6.8 °F 85% 30.24 in 10.0 mi Calm Calm - N/A   Clear
7:54 AM 10.4 °F - 6.8 °F 85% 30.24 in 10.0 mi Calm Calm - N/A   Clear
8:13 AM 12.2 °F - 6.8 °F 79% 30.24 in 10.0 mi Calm Calm - N/A   Clear
8:34 AM 14.0 °F 6.5 °F 6.8 °F 73% 30.23 in 10.0 mi East 4.6 mph - N/A   Clear
8:54 AM 12.2 °F 4.3 °F 6.8 °F 79% 30.23 in 10.0 mi East 4.6 mph - N/A   Clear
9:13 AM 14.0 °F 6.5 °F 6.8 °F 73% 30.22 in 10.0 mi East 4.6 mph - N/A   Clear
9:34 AM 14.0 °F 6.5 °F 8.6 °F 79% 30.22 in 10.0 mi East 4.6 mph - N/A   Clear
9:53 AM 15.8 °F 10.2 °F 8.6 °F 73% 30.21 in 10.0 mi East 3.5 mph - N/A   Clear
10:14 AM 17.6 °F - 8.6 °F 68% 30.20 in 10.0 mi Calm Calm - N/A   Clear
10:34 AM 17.6 °F - 10.4 °F 73% 30.20 in 10.0 mi Calm Calm - N/A   Clear
10:53 AM 19.4 °F 14.3 °F 10.4 °F 68% 30.19 in 10.0 mi ENE 3.5 mph - N/A   Clear
11:14 AM 21.2 °F 16.4 °F 10.4 °F 63% 30.18 in 10.0 mi NE 3.5 mph - N/A   Clear
11:34 AM 21.2 °F 14.9 °F 12.2 °F 68% 30.18 in 10.0 mi NE 4.6 mph - N/A   Clear
11:53 AM 23.0 °F 17.0 °F 12.2 °F 63% 30.17 in 10.0 mi NE 4.6 mph - N/A   Clear
12:14 PM 24.8 °F 20.5 °F 12.2 °F 59% 30.16 in 10.0 mi NE 3.5 mph - N/A   Clear
12:34 PM 26.6 °F 22.6 °F 14.0 °F 59% 30.15 in 10.0 mi NE 3.5 mph - N/A   Clear
12:53 PM 26.6 °F 21.2 °F 15.8 °F 64% 30.15 in 10.0 mi NE 4.6 mph - N/A   Clear
1:14 PM 28.4 °F 22.2 °F 15.8 °F 59% 30.14 in 10.0 mi ENE 5.8 mph - N/A   Clear
1:34 PM 28.4 °F 22.2 °F 17.6 °F 64% 30.14 in 10.0 mi NE 5.8 mph - N/A   Clear
1:54 PM 28.4 °F 22.2 °F 19.4 °F 69% 30.12 in 10.0 mi NE 5.8 mph - N/A   Clear
2:14 PM 28.4 °F 21.2 °F 19.4 °F 69% 30.12 in 10.0 mi NE 6.9 mph - N/A   Clear
2:34 PM 30.2 °F 24.3 °F 19.4 °F 64% 30.11 in 10.0 mi NE 5.8 mph - N/A   Clear
2:54 PM 30.2 °F 25.4 °F 19.4 °F 64% 30.09 in 10.0 mi NE 4.6 mph - N/A   Clear
3:14 PM 30.2 °F 24.3 °F 21.2 °F 69% 30.08 in 10.0 mi NE 5.8 mph - N/A   Clear
3:33 PM 32.0 °F 26.4 °F 21.2 °F 64% 30.07 in 10.0 mi NE 5.8 mph - N/A   Clear
3:54 PM 33.8 °F 27.7 °F 19.4 °F 56% 30.05 in 10.0 mi NE 6.9 mph - N/A   Clear
4:14 PM 33.8 °F 28.6 °F 19.4 °F 56% 30.05 in 10.0 mi NE 5.8 mph - N/A   Clear
4:34 PM 33.8 °F 29.6 °F 19.4 °F 56% 30.03 in 10.0 mi NNE 4.6 mph - N/A   Clear
4:53 PM 33.8 °F 28.6 °F 21.2 °F 60% 30.02 in 10.0 mi NNE 5.8 mph - N/A   Clear
5:14 PM 33.8 °F 29.6 °F 21.2 °F 60% 30.01 in 10.0 mi NE 4.6 mph - N/A   Clear
5:33 PM 33.8 °F 29.6 °F 21.2 °F 60% 30.01 in 10.0 mi NE 4.6 mph - N/A   Clear
5:54 PM 35.6 °F 31.7 °F 21.2 °F 56% 30.01 in 10.0 mi ESE 4.6 mph - N/A   Clear
6:14 PM 35.6 °F 28.0 °F 19.4 °F 52% 30.01 in 10.0 mi SE 10.4 mph - N/A   Clear
6:34 PM 35.6 °F 29.9 °F 21.2 °F 56% 30.00 in 10.0 mi ESE 6.9 mph - N/A   Scattered Clouds
6:54 PM 35.6 °F 29.9 °F 21.2 °F 56% 30.00 in 10.0 mi SE 6.9 mph - N/A   Mostly Cloudy
7:14 PM 33.8 °F - 24.8 °F 70% 29.98 in 10.0 mi Calm Calm - N/A   Overcast
7:34 PM 33.8 °F 30.8 °F 24.8 °F 70% 29.98 in 10.0 mi SE 3.5 mph - N/A   Overcast
7:54 PM 33.8 °F 27.7 °F 24.8 °F 70% 29.98 in 10.0 mi SSE 6.9 mph - N/A   Overcast
8:14 PM 33.8 °F 25.8 °F 21.2 °F 60% 29.98 in 10.0 mi South 10.4 mph - N/A   Overcast
8:34 PM 33.8 °F 25.3 °F 23.0 °F 65% 29.98 in 10.0 mi SSE 11.5 mph - N/A Snow Light Snow
8:54 PM 33.8 °F 25.3 °F 24.8 °F 70% 29.98 in 10.0 mi SE 11.5 mph - N/A   Overcast
9:14 PM 33.8 °F 25.8 °F 24.8 °F 70% 29.98 in 10.0 mi SSE 10.4 mph - N/A Snow Light Snow
9:33 PM 32.0 °F 25.6 °F 26.6 °F 80% 29.98 in 10.0 mi SE 6.9 mph - N/A   Overcast
9:54 PM 32.0 °F 24.8 °F 26.6 °F 80% 29.97 in 10.0 mi ESE 8.1 mph - N/A   Overcast
10:14 PM 32.0 °F 27.5 °F 26.6 °F 80% 29.97 in 10.0 mi ESE 4.6 mph - N/A   Overcast
10:34 PM 32.0 °F 27.5 °F 26.6 °F 80% 29.96 in 10.0 mi SE 4.6 mph - N/A Snow Light Snow
10:54 PM 30.2 °F 24.3 °F 26.6 °F 86% 29.94 in 10.0 mi East 5.8 mph - N/A Snow Light Snow
11:14 PM 30.2 °F 22.6 °F 26.6 °F 86% 29.94 in 10.0 mi ESE 8.1 mph - N/A   Overcast
11:33 PM 32.0 °F 26.4 °F 26.6 °F 80% 29.93 in 10.0 mi East 5.8 mph - N/A   Overcast
11:54 PM 30.2 °F 22.6 °F 26.6 °F 86% 29.92 in 10.0 mi East 8.1 mph - N/A   Overcast